This is the latest recevied weather packets stored in our database for station/object S56WDN-10. If no packets are shown the sender has not sent any weather packets the latest 10 day(s).
| Time | Temp. | Humidity | Pressure | Rain* | Wind** | Luminosity | Snow |
|---|---|---|---|---|---|---|---|
| 1778167011 | 22.22° C | 52% | 1011.1 hPa | 0 mm | - | - | - |
| 1778166711 | 22.22° C | 51% | 1011.2 hPa | 0 mm | - | - | - |
| 1778166411 | 22.78° C | 50% | 1011.1 hPa | 0 mm | - | - | - |
| 1778166111 | 22.78° C | 50% | 1011.2 hPa | 0 mm | - | - | - |
| 1778165811 | 23.89° C | 49% | 1011.1 hPa | 0 mm | - | - | - |
| 1778165511 | 23.89° C | 51% | 1011.2 hPa | 0 mm | - | - | - |
| 1778165211 | 23.33° C | 52% | 1011.2 hPa | 0 mm | - | - | - |
| 1778164911 | 23.33° C | 51% | 1011.2 hPa | 0 mm | - | - | - |
| 1778164611 | 23.33° C | 51% | 1011.3 hPa | 0 mm | - | - | - |
| 1778164311 | 22.78° C | 52% | 1011.1 hPa | 0 mm | - | - | - |
| 1778164011 | 22.78° C | 51% | 1011.2 hPa | 0 mm | - | - | - |
| 1778163711 | 23.33° C | 50% | 1011.2 hPa | 0 mm | - | - | - |
| 1778163411 | 23.33° C | 50% | 1011.2 hPa | 0 mm | - | - | - |
| 1778163111 | 23.33° C | 50% | 1011.4 hPa | 0 mm | - | - | - |
| 1778162811 | 23.33° C | 51% | 1011.2 hPa | 0 mm | - | - | - |
| 1778162511 | 23.33° C | 50% | 1011.4 hPa | 0 mm | - | - | - |
| 1778162211 | 23.33° C | 50% | 1011.4 hPa | 0 mm | - | - | - |
| 1778161911 | 23.33° C | 50% | 1011.5 hPa | 0 mm | - | - | - |
| 1778161611 | 23.33° C | 50% | 1011.5 hPa | 0 mm | - | - | - |
| 1778161311 | 23.33° C | 51% | 1011.6 hPa | 0 mm | - | - | - |
| 1778161011 | 23.33° C | 51% | 1011.6 hPa | 0 mm | - | - | - |
| 1778160711 | 23.33° C | 52% | 1011.6 hPa | 0 mm | - | - | - |
| 1778160412 | 23.33° C | 52% | 1011.8 hPa | 0 mm | - | - | - |
| 1778160111 | 22.78° C | 52% | 1011.9 hPa | 0 mm | - | - | - |
| 1778159812 | 22.78° C | 53% | 1012 hPa | 0 mm | - | - | - |
* Rain latest hour (hover to see other rain measurements)
** Current wind speed in m/s (hover to see current wind gust speed)